"Time","Temp","Dewpoint","Humidity","Pressure","Direction","Speed","Gust","Precip","PrecipRate"
"00:04:56","57.2","45.5","65","30.29","150","1.7","3.6","0.00","0.00"
"00:09:58","57.1","45.4","65","30.29","154","2","3.6","0.00","0.00"
"00:14:58","56.9","45.3","65.2","30.29","153","1.9","4.8","0.00","0.00"
"00:19:57","56.7","45.4","65.9","30.29","154","1.6","3.6","0.00","0.00"
"00:24:56","56.5","45.3","66","30.29","154","1.6","3.6","0.00","0.00"
"00:29:59","56.5","45.3","66","30.29","148","2.1","3.6","0.00","0.00"
"00:34:58","56.5","45.6","66.7","30.29","134","2","4.8","0.00","0.00"
"00:39:57","56.5","45.7","67","30.29","140","2","4.8","0.00","0.00"
"00:44:57","56.4","45.8","67.7","30.29","150","0.4","4.6","0.00","0.00"
"00:49:56","56.1","45.7","68","30.29","150","1.2","2.4","0.00","0.00"
"00:54:59","55.9","45.6","68.2","30.29","150","0.8","2.4","0.00","0.00"
"00:59:58","55.7","45.7","69","30.30","150","0.4","3.6","0.00","0.00"
"01:04:58","55.5","45.5","69","30.30","150","1.2","3.5","0.00","0.00"
"01:09:58","55.2","45.4","69.5","30.30","150","0.8","2.4","0.00","0.00"
"01:14:57","54.8","45.4","70.3","30.30","150","0.1","1.2","0.00","0.00"
"01:19:56","54.4","45.4","71.5","30.29","150","0.2","2.4","0.00","0.00"
"01:24:59","53.9","45.2","72.3","30.29","150","0.8","2.4","0.00","0.00"
"01:29:58","53.5","45.1","73","30.29","150","0.6","2.4","0.00","0.00"
"01:34:57","53.2","45","73.7","30.29","150","0.3","2.3","0.00","0.00"
"01:39:57","52.9","45.2","74.9","30.29","150","0","1.2","0.00","0.00"
"01:44:57","52.6","44.9","75","30.29","150","0","0","0.00","0.00"
"01:49:56","52.4","44.8","75.3","30.29","150","0","0","0.00","0.00"
"01:54:56","52.2","45","76.3","30.29","150","0","1.2","0.00","0.00"
"01:59:59","52","44.8","76.4","30.29","150","0.4","2.4","0.00","0.00"
"02:04:59","51.8","45","77.6","30.29","150","0","0","0.00","0.00"
"02:09:58","51.5","44.9","78","30.29","150","0.2","1.2","0.00","0.00"
"02:14:58","51.1","44.7","78.5","30.29","150","0","0","0.00","0.00"
"02:19:57","50.8","44.6","79.2","30.28","150","0","0","0.00","0.00"
"02:24:56","50.6","45","81","30.28","150","0","0","0.00","0.00"
"02:29:59","50.6","45","81","30.28","150","0","0","0.00","0.00"
"02:34:58","50.5","44.9","81","30.28","150","0","0","0.00","0.00"
"02:39:58","50.3","44.8","81.2","30.28","150","0","0","0.00","0.00"
"02:44:58","50.1","44.8","82.1","30.28","150","0","0","0.00","0.00"
"02:49:57","49.7","44.7","83","30.28","150","0","0","0.00","0.00"
"02:54:56","49.4","44.8","83.8","30.28","150","0","0","0.00","0.00"
"02:59:59","49.2","44.7","84.5","30.28","150","0","1.2","0.00","0.00"
"03:04:57","49","44.7","85","30.27","150","0","0","0.00","0.00"
"03:09:56","48.9","44.6","85","30.27","150","0","0","0.00","0.00"
"03:14:56","48.8","44.5","85","30.27","150","0","0","0.00","0.00"
"03:19:59","48.6","44.5","85.6","30.27","150","0","0","0.00","0.00"
"03:24:58","48.4","44.4","86","30.27","150","0","0","0.00","0.00"
"03:29:58","48.1","44.4","86.7","30.27","150","0","0","0.00","0.00"
"03:34:58","48","44.4","87.5","30.27","150","0","0","0.00","0.00"
"03:39:59","47.8","44.5","88.1","30.27","150","0","0","0.00","0.00"
"03:44:58","47.7","44.6","88.7","30.27","150","0","0","0.00","0.00"
"03:49:56","47.5","44.1","88","30.27","150","0","0","0.00","0.00"
"03:54:58","47.3","44","88.2","30.27","150","0","0","0.00","0.00"
"03:59:56","47.2","44.1","89","30.27","150","0","0","0.00","0.00"
"04:04:56","47","43.9","89","30.27","150","0","0","0.00","0.00"
"04:09:56","46.9","43.9","89.5","30.27","150","0","0","0.00","0.00"
"04:14:59","46.7","43.9","90","30.27","150","0","0","0.00","0.00"
"04:19:58","46.7","44.1","90.8","30.27","150","0","0","0.00","0.00"
"04:24:58","46.6","44.1","91","30.27","150","0","0","0.00","0.00"
"04:29:56","46.4","43.9","91","30.27","150","0","0","0.00","0.00"
"04:34:59","46.3","43.8","91","30.27","150","0","0","0.00","0.00"
"04:39:56","46.3","44.1","92","30.27","150","0","0","0.00","0.00"
"04:44:59","46.3","44.1","92","30.27","150","0","0","0.00","0.00"
"04:49:58","46.3","44.1","92","30.27","150","0","0","0.00","0.00"
"04:54:58","46.3","44.1","92","30.27","150","0","0","0.00","0.00"
"04:59:57","46.2","44","92","30.27","150","0","0","0.00","0.00"
"05:04:57","46.1","43.9","92","30.27","150","0","0","0.00","0.00"
"05:09:56","46.1","43.9","92","30.27","150","0","0","0.00","0.00"
"05:14:57","46","44","92.5","30.27","150","0","0","0.00","0.00"
"05:19:57","46","44.1","93","30.27","150","0","0","0.00","0.00"
"05:24:57","45.9","43.8","92.5","30.27","150","0","0","0.00","0.00"
"05:29:56","45.9","44","93","30.27","150","0","0","0.00","0.00"
"05:34:59","45.9","44","93","30.27","150","0","0","0.00","0.00"
"05:39:56","45.8","43.9","93","30.27","150","0","0","0.00","0.00"
"05:44:59","45.8","43.9","93","30.27","150","0","0","0.00","0.00"
"05:49:59","45.8","43.9","93","30.27","148","0","0","0.00","0.00"
"05:54:58","45.7","44","93.4","30.27","146","0","0","0.00","0.00"
"05:59:57","45.8","44.2","93.9","30.27","146","0","0","0.00","0.00"
"06:04:58","45.8","44.2","94","30.27","146","0","0","0.00","0.00"
"06:09:58","45.8","44.2","94","30.27","146","0","0","0.00","0.00"
"06:14:58","45.8","44.2","94","30.28","146","0","0","0.00","0.00"
"06:19:57","45.8","44.2","94","30.28","142","0","1.2","0.00","0.00"
"06:24:57","45.9","44.3","94.3","30.28","142","0","0","0.00","0.00"
"06:29:59","46.1","44.7","95","30.29","142","0","1.2","0.00","0.00"
"06:34:58","46.3","44.9","95","30.29","142","0","0","0.00","0.00"
"06:39:58","46.4","45","95","30.29","142","0","0","0.00","0.00"
"06:44:58","46.6","45.2","95","30.29","142","0","0","0.00","0.00"
"06:49:57","46.8","45.4","95","30.29","142","0","0","0.00","0.00"
"06:54:56","46.9","45.5","95","30.29","142","0","0","0.00","0.00"
"06:59:59","47.3","45.9","95.1","30.29","142","0","0","0.00","0.00"
"07:04:59","47.7","46.6","95.8","30.29","136","0","0","0.00","0.00"
"07:09:58","48.2","47","95.8","30.29","346","0","0","0.00","0.00"
"07:14:57","48.7","47.5","95.8","30.29","327","0.1","1.2","0.00","0.00"
"07:19:56","49.1","47.7","95","30.29","327","0","0","0.00","0.00"
"07:24:56","49.4","48","95","30.29","327","0","0","0.00","0.00"
"07:29:58","49.8","48.3","94.7","30.29","327","0","0","0.00","0.00"
"07:34:56","50.4","48.7","94","30.29","327","0","0","0.00","0.00"
"07:39:59","51","49.1","93.6","30.29","44","0.2","1.2","0.00","0.00"
"07:44:58","51.6","49.5","92.3","30.29","67","0.5","2.4","0.00","0.00"
"07:49:56","52.3","49.7","90.5","30.29","67","1.3","2.4","0.00","0.00"
"07:54:59","52.9","49.9","89.6","30.29","61","1.2","2.4","0.00","0.00"
"07:59:58","53.4","49.9","88.1","30.30","58","0.2","1.2","0.00","0.00"
"08:04:59","53.8","50.5","88.5","30.30","58","0","1.2","0.00","0.00"
"08:09:58","54.2","50.4","87","30.30","58","0.6","2.4","0.00","0.00"
"08:14:57","54.5","50.1","84.9","30.30","58","0.7","2.4","0.00","0.00"
"08:19:56","54.8","50.4","84.8","30.30","58","0.4","2.4","0.00","0.00"
"08:24:59","55.2","50.8","85","30.30","57","0.6","2.4","0.00","0.00"
"08:29:57","55.5","51.1","85","30.30","69","0.8","2.4","0.00","0.00"
"08:34:56","55.7","51.5","85.5","30.30","116","0.4","2.4","0.00","0.00"
"08:39:56","56","52","86.2","30.30","111","0.5","2.3","0.00","0.00"
"08:44:58","56.2","52","85.7","30.30","105","1.1","3.6","0.00","0.00"
"08:49:56","56.4","52","85.4","30.30","65","0.9","3.6","0.00","0.00"
"08:54:59","56.6","52.3","85.6","30.30","30","1.8","4.8","0.00","0.00"
"08:59:57","56.7","52.3","85.2","30.30","28","0.8","3.6","0.00","0.00"
"09:04:57","56.8","52.2","84.6","30.30","23","1.4","4.8","0.00","0.00"
"09:09:57","57","52.6","85.2","30.30","19","0.8","3.6","0.00","0.00"
"09:14:56","57.3","53.1","86","30.30","19","0.7","3.6","0.00","0.00"
"09:19:58","57.7","53.5","85.8","30.30","19","0.4","2.3","0.00","0.00"
"09:24:57","58.3","54","85.4","30.30","19","0.3","3.6","0.00","0.00"
"09:29:59","59","54.5","84.9","30.30","19","0.6","3.5","0.00","0.00"
"09:34:57","59.5","54.8","84.3","30.30","21","1.1","3.6","0.00","0.00"
"09:39:57","59.7","54.7","83.4","30.30","26","0.3","2.4","0.00","0.00"
"09:44:59","60.2","55.1","83.4","30.30","23","1","2.4","0.00","0.00"
"09:49:57","61.1","56","83.5","30.30","356","1","3.6","0.00","0.00"
"09:54:56","62.5","57","82","30.30","263","0.9","3.5","0.00","0.00"
"09:59:59","62.8","56.9","81.1","30.30","141","1.6","4.8","0.00","0.00"
"10:04:58","62.6","56.6","80.8","30.29","154","1.9","6","0.00","0.00"
"10:09:57","62.6","56.5","80.5","30.29","150","1.6","3.6","0.00","0.00"
"10:14:56","62.6","56.5","80.7","30.29","139","2.1","4.8","0.00","0.00"
"10:19:59","62.8","56.7","80.5","30.29","144","1.9","7.2","0.00","0.00"
"10:24:57","63.1","57.2","81","30.29","182","2.7","6","0.00","0.00"
"10:29:59","63.4","57.3","80.5","30.29","151","2.3","6","0.00","0.00"
"10:34:57","64.1","57.8","80.2","30.29","209","3.3","7.2","0.00","0.00"
"10:39:56","64.6","58.4","80.3","30.29","187","2.8","8.4","0.00","0.00"
"10:44:59","66","59.6","79.8","30.29","156","2.5","4.8","0.00","0.00"
"10:49:56","65.5","58.6","78.4","30.28","195","4","8.4","0.00","0.00"
"10:54:59","65.8","59.1","78.9","30.28","174","3.1","6","0.00","0.00"
"10:59:58","66.8","59.6","77.7","30.28","195","2.8","6","0.00","0.00"
"11:04:57","67.2","59.9","77.5","30.28","201","3.8","7.2","0.00","0.00"
"11:09:57","68","60.7","77.6","30.28","193","1.9","5.8","0.00","0.00"
"11:14:59","68.1","59.5","74.1","30.28","139","2.6","8.4","0.00","0.00"
"11:19:57","67.3","58.8","74.2","30.28","176","4.6","10.8","0.00","0.00"
"11:24:57","67.6","59.2","74.5","30.28","141","3.6","10.8","0.00","0.00"
"11:29:59","68.4","59.5","73.2","30.28","165","3.9","10.4","0.00","0.00"
"11:34:57","68.4","59.6","73.3","30.28","137","3.3","8.4","0.00","0.00"
"11:39:57","69.9","60.3","71.8","30.28","134","2.6","8.1","0.00","0.00"
"11:44:59","70.1","59.6","69.5","30.28","175","5","15","0.00","0.00"
"11:49:56","68.7","58.4","69.6","30.27","166","3.9","12.7","0.00","0.00"
"11:54:58","68","58.2","70.8","30.27","168","3.3","10.8","0.00","0.00"
"11:59:56","68.5","59.3","72.5","30.27","170","2.5","7.2","0.00","0.00"
"12:04:56","69.9","59.4","69.3","30.27","177","4.3","12","0.00","0.00"
"12:09:59","69.8","59.4","69.5","30.27","165","3.4","12","0.00","0.00"
"12:14:58","70.2","59.4","68.5","30.27","199","4.5","10.8","0.00","0.00"
"12:19:56","70","58.6","67.3","30.27","161","3","7.2","0.00","0.00"
"12:24:58","70.9","60","68.6","30.27","140","3.9","12","0.00","0.00"
"12:29:57","71.2","59","65.4","30.27","164","4.3","8.4","0.00","0.00"
"12:34:59","70.8","58.7","65.5","30.26","122","3.3","7.2","0.00","0.00"
"12:39:59","69.7","57.6","65.3","30.26","149","2.7","7.2","0.00","0.00"
"12:44:57","69.4","57.4","65.8","30.27","157","3.6","7.2","0.00","0.00"
"12:49:56","69.3","57.2","65.3","30.27","151","3.2","7.2","0.00","0.00"
"12:54:59","70.1","58.5","66.6","30.27","155","2.5","6","0.00","0.00"
"12:59:58","70.9","58.9","65.8","30.27","128","3.6","8.4","0.00","0.00"
"13:04:57","70.7","57.7","63.5","30.25","148","3.8","9.6","0.00","0.00"
"13:09:56","71","58.4","64.5","30.25","175","3.4","8.4","0.00","0.00"
"13:14:59","70.6","57.4","62.9","30.25","156","3.3","8.1","0.00","0.00"
"13:19:57","70","57.7","65","30.25","177","4.3","10.8","0.00","0.00"
"13:24:56","69.6","57.1","64.4","30.25","164","3.9","10.4","0.00","0.00"
"13:29:57","69.9","57.2","64.1","30.25","174","4.4","10.8","0.00","0.00"
"13:34:59","70.5","57.3","63.1","30.24","154","3.5","10.4","0.00","0.00"
"13:39:59","71.6","58.1","62.6","30.24","163","3.2","9.6","0.00","0.00"
"13:44:57","72.5","58.5","61.5","30.24","169","3.9","10.8","0.00","0.00"
"13:49:59","73","58.4","60.2","30.24","109","3.5","7.2","0.00","0.00"
"13:54:57","72.2","57.5","59.8","30.24","175","3.2","7.2","0.00","0.00"
"13:59:59","71.9","58","61.5","30.24","126","3","7.2","0.00","0.00"
"14:04:59","72","57.9","61.1","30.23","176","2.6","7.2","0.00","0.00"
"14:09:58","71.9","57.4","60.3","30.23","181","3.7","8.4","0.00","0.00"
"14:14:56","71.7","56.9","59.6","30.23","173","4.2","8.4","0.00","0.00"
"14:19:58","71.6","56.4","58.7","30.23","157","3.2","7.2","0.00","0.00"
"14:24:57","71.5","56.7","59.7","30.23","149","4.1","8.4","0.00","0.00"
"14:29:59","71.9","57.1","59.7","30.23","170","4.4","8.4","0.00","0.00"
"14:34:57","72.1","56.6","58.2","30.22","155","3.8","12","0.00","0.00"
"14:39:57","72.4","56.5","57.4","30.22","170","3.7","7.2","0.00","0.00"
"14:44:56","72.1","56.5","58.1","30.22","128","3.1","7.2","0.00","0.00"
"14:49:58","71.6","57","60.1","30.21","149","2.4","6.9","0.00","0.00"
"14:54:56","71.7","57.4","60.8","30.21","154","1.5","4.8","0.00","0.00"
"14:59:59","71.4","56.6","59.6","30.21","162","3.6","13.2","0.00","0.00"
"15:04:58","71.2","56.3","59.3","30.21","157","3.4","8.4","0.00","0.00"
"15:09:57","71","56.9","60.9","30.21","182","3.2","7.2","0.00","0.00"
"15:14:56","70.9","56.3","59.9","30.21","149","3.5","8.4","0.00","0.00"
"15:19:58","71.1","56","59","30.21","162","4","8.4","0.00","0.00"
"15:24:56","71.2","56.3","59.4","30.21","166","3.8","10.8","0.00","0.00"
"15:29:59","72.9","57.9","59.4","30.21","173","4.4","8.4","0.00","0.00"
"15:34:57","73.7","57.7","57.5","30.19","168","4.8","16.1","0.00","0.00"
"15:39:56","72.2","56.9","58.6","30.19","190","5","10.8","0.00","0.00"
"15:44:59","71.2","56.5","59.8","30.19","182","3.6","7.2","0.00","0.00"
"15:49:57","71.1","56.5","60","30.19","193","4","10.8","0.00","0.00"
"15:54:56","71.3","56.5","59.7","30.19","198","3.3","6.9","0.00","0.00"
"15:59:58","71.4","56.5","59.4","30.19","154","3.3","7.2","0.00","0.00"
"16:04:57","71.7","56.8","59.5","30.19","157","2.9","6","0.00","0.00"
"16:09:56","71.9","57","59.3","30.19","164","3","7.2","0.00","0.00"
"16:14:59","72.7","58","59.9","30.19","180","2.9","9.6","0.00","0.00"
"16:19:57","73","57.6","58.6","30.18","172","4.4","13.2","0.00","0.00"
"16:24:56","72.9","57.5","58.6","30.18","123","3.8","9.6","0.00","0.00"
"16:29:58","72","57.2","59.6","30.18","124","3.1","7.2","0.00","0.00"
"16:34:56","71.6","56.9","59.9","30.18","136","3.4","8.4","0.00","0.00"
"16:39:59","71.7","57.1","60.1","30.18","126","3.3","8.4","0.00","0.00"
"16:44:57","72","57.4","60.2","30.18","149","2.8","4.8","0.00","0.00"
"16:49:59","72","57.1","59.4","30.18","154","4.4","13.2","0.00","0.00"
"16:54:58","71.7","57.2","60.3","30.18","182","3.9","9.6","0.00","0.00"
"16:59:56","71","57.6","62.6","30.18","151","2.4","6.9","0.00","0.00"
"17:04:59","71.2","56.9","60.8","30.17","167","3.6","7.2","0.00","0.00"
"17:09:58","71.3","57","60.5","30.17","161","3.7","8.4","0.00","0.00"
"17:14:57","71.3","56.4","59.4","30.18","134","3.8","7.2","0.00","0.00"
"17:19:58","71.3","57.1","60.7","30.18","172","4.5","13.2","0.00","0.00"
"17:24:57","71","56.1","59.4","30.18","136","4.3","10.8","0.00","0.00"
"17:29:56","71","56.1","59.4","30.18","151","3.8","9.6","0.00","0.00"
"17:34:58","71","56.7","60.7","30.18","141","3","7.2","0.00","0.00"
"17:39:57","71","56.2","59.7","30.18","164","4.7","13.2","0.00","0.00"
"17:44:59","70.7","56","59.7","30.18","147","3.5","12.7","0.00","0.00"
"17:49:57","70.8","56.4","60.6","30.18","162","2.8","7.2","0.00","0.00"
"17:54:59","71","56.5","60","30.18","139","3.4","7.2","0.00","0.00"
"17:59:57","71.6","56.9","59.8","30.18","138","2.5","4.8","0.00","0.00"
"18:04:56","71.5","56.5","59.1","30.17","149","3.1","9.6","0.00","0.00"
"18:09:59","71.1","56.4","59.8","30.17","148","3.4","8.1","0.00","0.00"
"18:14:58","71","55.9","58.9","30.17","162","4.2","10.8","0.00","0.00"
"18:19:56","70.9","55.5","58.2","30.17","152","4.7","10.8","0.00","0.00"
"18:24:59","70.8","56","59.6","30.17","129","3.1","10.4","0.00","0.00"
"18:29:56","70.6","55.4","58.7","30.17","168","5.2","13.2","0.00","0.00"
"18:34:59","70.5","55.5","59.1","30.16","143","4.8","12","0.00","0.00"
"18:39:58","70.3","55.5","59.4","30.16","139","3.2","11.5","0.00","0.00"
"18:44:56","70.2","55.8","60.4","30.16","178","3","7.2","0.00","0.00"
"18:49:56","70","55.4","59.8","30.16","168","3.2","8.4","0.00","0.00"
"18:54:59","69.9","55.3","59.8","30.16","133","3.3","10.8","0.00","0.00"
"18:59:57","69.9","55.2","59.7","30.17","137","3.3","8.4","0.00","0.00"
"19:04:57","69.8","55.6","60.8","30.17","142","2.3","8.1","0.00","0.00"
"19:09:56","69.7","55.6","60.9","30.17","172","3.6","8.4","0.00","0.00"
"19:14:59","69.6","55.3","60.4","30.17","151","3.2","8.4","0.00","0.00"
"19:19:57","69.6","55.1","60","30.17","156","3","7.2","0.00","0.00"
"19:24:59","69.6","55.6","61","30.17","159","2.8","7.2","0.00","0.00"
"19:29:57","69.3","55.2","60.8","30.18","169","3.6","8.4","0.00","0.00"
"19:34:59","69.2","55.2","61","30.18","147","2.7","7.2","0.00","0.00"
"19:39:59","69","54.9","60.8","30.18","146","2.6","8.4","0.00","0.00"
"19:44:57","68.7","54.7","61","30.18","122","1.9","6","0.00","0.00"
"19:49:59","68.4","54.6","61.2","30.17","140","2.5","8.4","0.00","0.00"
"19:54:59","68.2","54.6","61.8","30.17","145","2.4","8.1","0.00","0.00"
"19:59:57","68","54.6","62.2","30.18","148","2","6","0.00","0.00"
"20:04:57","67.9","54.5","62.3","30.18","162","2.3","6","0.00","0.00"
"20:09:56","67.7","54.3","62.3","30.18","170","2.8","7.2","0.00","0.00"
"20:14:59","67.5","54.2","62.5","30.18","152","1.5","6","0.00","0.00"
"20:19:57","67.3","53.7","61.7","30.17","169","2.7","6","0.00","0.00"
"20:24:56","67.1","53.6","62","30.17","157","2.1","6","0.00","0.00"
"20:29:59","66.9","53.5","62","30.17","141","2.4","7.2","0.00","0.00"
"20:34:58","66.8","53.3","61.8","30.17","142","2.6","6.9","0.00","0.00"
"20:39:57","66.6","53.1","61.8","30.17","153","2.4","8.4","0.00","0.00"
"20:44:56","66.4","53.1","62.3","30.17","136","2.3","6","0.00","0.00"
"20:49:59","66","52.8","62.5","30.17","158","1.9","4.8","0.00","0.00"
"20:54:58","65.8","52.9","63","30.17","136","2.6","4.8","0.00","0.00"
"20:59:57","65.6","52.7","63","30.17","158","1.9","4.8","0.00","0.00"
"21:04:57","65.4","52.5","63","30.17","140","2.1","7.2","0.00","0.00"
"21:09:56","65.2","52.5","63.5","30.17","143","1.7","4.8","0.00","0.00"
"21:14:59","65","52.5","64","30.17","148","1.6","4.6","0.00","0.00"
"21:19:58","64.8","52.5","64.4","30.17","144","1.3","3.6","0.00","0.00"
"21:24:57","64.5","52.5","65","30.17","132","1.8","3.6","0.00","0.00"
"21:29:56","64.3","52.3","65","30.17","145","1.8","4.8","0.00","0.00"
"21:34:59","64.2","52.4","65.6","30.17","159","1.9","6","0.00","0.00"
"21:39:59","64.1","52.5","66","30.17","141","1.9","5.8","0.00","0.00"
"21:44:58","64","52.7","66.7","30.18","121","1.6","4.8","0.00","0.00"
"21:49:56","63.8","52.6","67","30.18","125","0.9","4.6","0.00","0.00"
"21:54:56","63.5","52.5","67.3","30.18","137","1.1","4.8","0.00","0.00"
"21:59:58","63.3","52.6","68.1","30.18","141","1.4","3.6","0.00","0.00"
"22:04:58","63.1","52.8","69","30.18","154","1.6","4.8","0.00","0.00"
"22:09:57","62.9","52.9","69.7","30.18","138","1.7","4.8","0.00","0.00"
"22:14:56","62.7","53.1","70.7","30.18","139","1.1","3.6","0.00","0.00"
"22:19:59","62.5","53.1","71.2","30.17","139","1.2","2.4","0.00","0.00"
"22:24:58","62.3","53.3","72.3","30.17","140","0.9","3.6","0.00","0.00"
"22:29:57","62.2","53.4","73","30.18","142","0.9","3.5","0.00","0.00"
"22:34:56","62","53.2","73","30.18","142","0.9","2.4","0.00","0.00"
"22:39:56","62","53.2","73","30.18","141","0.6","2.4","0.00","0.00"
"22:44:59","61.8","53.4","73.7","30.18","141","0.5","2.4","0.00","0.00"
"22:49:58","61.6","53.2","74","30.18","140","0.8","3.6","0.00","0.00"
"22:54:57","61.3","53.2","74.6","30.18","140","0.4","2.4","0.00","0.00"
"22:59:59","61.1","53.1","75.1","30.18","141","0.2","1.2","0.00","0.00"
"23:04:59","60.9","53.3","76","30.17","141","0","1.2","0.00","0.00"
"23:09:59","60.7","53.4","76.7","30.17","141","0.4","3.6","0.00","0.00"
"23:14:58","60.7","53.7","77.7","30.17","142","0.3","2.4","0.00","0.00"
"23:19:57","60.6","53.7","78","30.17","142","0.3","1.2","0.00","0.00"
"23:24:56","60.5","53.9","78.7","30.17","142","0.5","3.6","0.00","0.00"
"23:29:59","60.5","54","79.1","30.17","142","0.5","3.6","0.00","0.00"
"23:34:56","60.5","54.3","80","30.17","142","0.7","2.4","0.00","0.00"
"23:39:57","60.5","54.3","80","30.17","142","0.3","2.4","0.00","0.00"
"23:44:58","60.4","54.2","80","30.17","142","0.4","2.4","0.00","0.00"
"23:49:57","60.4","54.2","80","30.17","142","0.8","2.4","0.00","0.00"
"23:54:57","60.3","54.3","80.5","30.17","144","0.7","3.6","0.00","0.00"
